"Period start","avg(HW err(1)/warn(2) (#))","avg(Visibility (m))","avg(Weather code (#))","avg(Precip intensity (mm/h))","min(HW err(1)/warn(2) (#))","max(HW err(1)/warn(2) (#))","std(HW err(1)/warn(2) (#))","med(HW err(1)/warn(2) (#))","min(Visibility (m))","max(Visibility (m))","std(Visibility (m))","med(Visibility (m))","min(Weather code (#))","max(Weather code (#))","std(Weather code (#))","med(Weather code (#))","min(Precip intensity (mm/h))","max(Precip intensity (mm/h))","std(Precip intensity (mm/h))","med(Precip intensity (mm/h))"
2014-07-13 00:00:00,2,43086,0,0.00,2,2,0,2,32659,50000,6284,45884,0,0,0,0,0.00,0.00,0.00,0.00
2014-07-13 00:10:00,2,42597,0,0.00,2,2,0,2,35128,50000,4287,42354,0,0,0,0,0.00,0.00,0.00,0.00
2014-07-13 00:20:00,2,37630,0,0.00,2,2,0,2,29959,50000,6058,37072,0,0,0,0,0.00,0.00,0.00,0.00
2014-07-13 00:30:00,2,43306,0,0.00,2,2,0,2,32888,50000,6261,45236,0,0,0,0,0.00,0.00,0.00,0.00
2014-07-13 00:40:00,2,47316,0,0.00,2,2,0,2,41712,50000,2897,48405,0,0,0,0,0.00,0.00,0.00,0.00
2014-07-13 00:50:00,2,45022,0,0.00,2,2,0,2,32829,50000,5732,47598,0,0,0,0,0.00,0.00,0.00,0.00
2014-07-13 01:00:00,2,38639,0,0.00,2,2,0,2,23703,50000,8008,40528,0,0,0,0,0.00,0.00,0.00,0.00
2014-07-13 01:10:00,2,41504,0,0.00,2,2,0,2,30594,50000,5684,40936,0,0,0,0,0.00,0.00,0.00,0.00
2014-07-13 01:20:00,2,37309,0,0.00,2,2,0,2,27700,50000,7498,37170,0,0,0,0,0.00,0.00,0.00,0.00
2014-07-13 01:30:00,2,42503,0,0.00,2,2,0,2,35483,50000,5600,41746,0,0,0,0,0.00,0.00,0.00,0.00
2014-07-13 01:40:00,2,33068,0,0.00,2,2,0,2,21050,45983,7154,34302,0,0,0,0,0.00,0.00,0.00,0.00
2014-07-13 01:50:00,2,42830,0,0.00,2,2,0,2,32839,50000,5360,42000,0,0,0,0,0.00,0.00,0.00,0.00
2014-07-13 02:00:00,2,46820,0,0.00,2,2,0,2,33926,50000,4881,49131,0,0,0,0,0.00,0.00,0.00,0.00
2014-07-13 02:10:00,2,41871,0,0.00,2,2,0,2,27510,50000,6851,42683,0,0,0,0,0.00,0.00,0.00,0.00
2014-07-13 02:20:00,2,18029,0,0.00,2,2,0,2,7792,31567,6996,18228,0,0,0,0,0.00,0.00,0.00,0.00
2014-07-13 02:30:00,2,11319,0,0.00,2,2,0,2,6421,17482,3465,10472,0,4,1,0,0.00,0.00,0.00,0.00
2014-07-13 02:40:00,2,19167,1,0.00,2,2,0,2,8771,31107,6770,18306,0,4,2,0,0.00,0.00,0.00,0.00
2014-07-13 02:50:00,2,12018,2,0.00,2,2,0,2,5929,19720,4581,11520,0,4,2,2,0.00,0.00,0.00,0.00
2014-07-13 03:00:00,2,18782,1,0.00,2,2,0,2,10685,27316,5274,17927,0,4,2,0,0.00,0.00,0.00,0.00
2014-07-13 03:10:00,2,22455,0,0.00,2,2,0,2,13156,29150,5971,22604,0,0,0,0,0.00,0.00,0.00,0.00
2014-07-13 03:20:00,2,15358,0,0.00,2,2,0,2,11169,19955,2843,14858,0,0,0,0,0.00,0.00,0.00,0.00
2014-07-13 03:30:00,2,32028,0,0.00,2,2,0,2,9281,50000,14013,38726,0,0,0,0,0.00,0.00,0.00,0.00
2014-07-13 03:40:00,2,32762,0,0.00,2,2,0,2,18288,45608,8169,32281,0,0,0,0,0.00,0.00,0.00,0.00
2014-07-13 03:50:00,2,18066,0,0.00,2,2,0,2,10344,25864,4632,17330,0,0,0,0,0.00,0.00,0.00,0.00
2014-07-13 04:00:00,2,17105,0,0.00,2,2,0,2,10519,31794,5996,14887,0,0,0,0,0.00,0.00,0.00,0.00
2014-07-13 04:10:00,2,29695,0,0.00,2,2,0,2,13880,45537,9990,30716,0,0,0,0,0.00,0.00,0.00,0.00
2014-07-13 04:20:00,2,44550,0,0.00,2,2,0,2,37483,50000,3727,44966,0,0,0,0,0.00,0.00,0.00,0.00
2014-07-13 04:30:00,2,49553,0,0.00,2,2,0,2,47924,50000,732,50000,0,0,0,0,0.00,0.00,0.00,0.00
2014-07-13 04:40:00,2,50000,0,0.00,2,2,0,2,50000,50000,0,50000,0,0,0,0,0.00,0.00,0.00,0.00
2014-07-13 04:50:00,2,48812,0,0.00,2,2,0,2,44530,50000,1854,50000,0,0,0,0,0.00,0.00,0.00,0.00
2014-07-13 05:00:00,2,49940,0,0.00,2,2,0,2,49692,50000,120,50000,0,0,0,0,0.00,0.00,0.00,0.00
2014-07-13 05:10:00,2,48712,0,0.00,2,2,0,2,42694,50000,2442,50000,0,0,0,0,0.00,0.00,0.00,0.00
2014-07-13 05:20:00,2,49203,0,0.00,2,2,0,2,46394,50000,1256,50000,0,0,0,0,0.00,0.00,0.00,0.00
2014-07-13 05:30:00,2,48891,0,0.00,2,2,0,2,46218,50000,1429,50000,0,0,0,0,0.00,0.00,0.00,0.00
2014-07-13 05:40:00,2,49015,0,0.00,2,2,0,2,41180,50000,2624,50000,0,0,0,0,0.00,0.00,0.00,0.00
2014-07-13 05:50:00,2,49412,0,0.00,2,2,0,2,45900,50000,1222,50000,0,0,0,0,0.00,0.00,0.00,0.00
2014-07-13 06:00:00,2,49362,0,0.00,2,2,0,2,48148,50000,757,49906,0,0,0,0,0.00,0.00,0.00,0.00
2014-07-13 06:10:00,2,49374,0,0.00,2,2,0,2,43741,50000,1878,50000,0,0,0,0,0.00,0.00,0.00,0.00
2014-07-13 06:20:00,2,48551,0,0.00,2,2,0,2,42531,50000,2432,50000,0,0,0,0,0.00,0.00,0.00,0.00
2014-07-13 06:30:00,2,48508,0,0.00,2,2,0,2,41837,50000,2459,50000,0,0,0,0,0.00,0.00,0.00,0.00
2014-07-13 06:40:00,2,49856,0,0.00,2,2,0,2,48557,50000,433,50000,0,0,0,0,0.00,0.00,0.00,0.00
2014-07-13 06:50:00,2,48041,0,0.00,2,2,0,2,44526,50000,2145,48786,0,0,0,0,0.00,0.00,0.00,0.00
2014-07-13 07:00:00,2,48752,0,0.00,2,2,0,2,45038,50000,1954,50000,0,0,0,0,0.00,0.00,0.00,0.00
2014-07-13 07:10:00,2,50000,0,0.00,2,2,0,2,50000,50000,0,50000,0,0,0,0,0.00,0.00,0.00,0.00
2014-07-13 07:20:00,2,49490,0,0.00,0,2,1,2,45757,50000,1270,50000,0,0,0,0,0.00,0.00,0.00,0.00
2014-07-13 07:30:00,1,50000,0,0.00,0,2,1,2,50000,50000,0,50000,0,0,0,0,0.00,0.00,0.00,0.00
2014-07-13 07:40:00,2,49077,0,0.00,0,2,1,2,42683,50000,2206,50000,0,0,0,0,0.00,0.00,0.00,0.00
2014-07-13 07:50:00,2,40987,0,0.00,2,2,0,2,12285,50000,14862,50000,0,0,0,0,0.00,0.00,0.00,0.00
2014-07-13 08:00:00,2,45969,0,0.00,2,2,0,2,33766,50000,6217,50000,0,0,0,0,0.00,0.00,0.00,0.00
2014-07-13 08:10:00,2,49417,0,0.00,2,2,0,2,45656,50000,1305,50000,0,0,0,0,0.00,0.00,0.00,0.00
2014-07-13 08:20:00,2,46792,0,0.00,2,2,0,2,35014,50000,4898,49422,0,0,0,0,0.00,0.00,0.00,0.00
2014-07-13 08:30:00,2,49782,0,0.00,2,2,0,2,47820,50000,654,50000,0,0,0,0,0.00,0.00,0.00,0.00
2014-07-13 08:40:00,2,50000,0,0.00,2,2,0,2,50000,50000,0,50000,0,0,0,0,0.00,0.00,0.00,0.00
2014-07-13 08:50:00,2,49204,0,0.00,2,2,0,2,44357,50000,1691,50000,0,0,0,0,0.00,0.00,0.00,0.00
2014-07-13 09:00:00,2,49947,0,0.00,2,2,0,2,49471,50000,159,50000,0,0,0,0,0.00,0.00,0.00,0.00
2014-07-13 09:10:00,2,49818,0,0.00,2,2,0,2,48179,50000,546,50000,0,0,0,0,0.00,0.00,0.00,0.00
2014-07-13 09:20:00,2,50000,0,0.00,2,2,0,2,50000,50000,0,50000,0,0,0,0,0.00,0.00,0.00,0.00
2014-07-13 09:30:00,2,49993,0,0.00,2,2,0,2,49934,50000,20,50000,0,0,0,0,0.00,0.00,0.00,0.00
2014-07-13 09:40:00,2,49917,0,0.00,2,2,0,2,49167,50000,250,50000,0,0,0,0,0.00,0.00,0.00,0.00
2014-07-13 09:50:00,2,49786,0,0.00,2,2,0,2,48605,50000,452,50000,0,0,0,0,0.00,0.00,0.00,0.00
2014-07-13 10:00:00,2,49880,0,0.00,2,2,0,2,48801,50000,360,50000,0,0,0,0,0.00,0.00,0.00,0.00
2014-07-13 10:10:00,2,50000,0,0.00,2,2,0,2,50000,50000,0,50000,0,0,0,0,0.00,0.00,0.00,0.00
2014-07-13 10:20:00,2,50000,0,0.00,2,2,0,2,50000,50000,0,50000,0,0,0,0,0.00,0.00,0.00,0.00
2014-07-13 10:30:00,2,49988,0,0.00,0,2,1,2,49875,50000,38,50000,0,0,0,0,0.00,0.00,0.00,0.00
2014-07-13 10:40:00,1,49558,0,0.00,0,2,1,2,46465,50000,1064,50000,0,0,0,0,0.00,0.00,0.00,0.00
2014-07-13 10:50:00,0,36074,54,0.67,0,0,0,0,21519,45589,8230,37423,51,61,4,52,0.00,2.30,0.72,0.28
2014-07-13 11:00:00,1,48034,38,0.03,0,2,1,2,42273,50000,2501,49088,0,61,25,51,0.00,0.05,0.03,0.03
2014-07-13 11:10:00,2,49383,0,0.00,0,2,1,2,46306,50000,1182,50000,0,0,0,0,0.00,0.00,0.00,0.00
2014-07-13 11:20:00,2,46594,33,0.42,2,2,0,2,41324,50000,2902,46694,0,61,27,51,0.00,1.20,0.43,0.33
2014-07-13 11:30:00,2,47379,57,3.01,0,2,1,2,36661,50000,4131,50000,51,62,5,61,0.00,11.00,3.08,2.25
2014-07-13 11:40:00,0,25720,61,6.55,0,0,0,0,19699,29633,3147,26035,61,62,0,61,3.90,11.40,2.07,6.22
2014-07-13 11:50:00,0,21215,61,5.44,0,0,0,0,14556,27496,4375,21034,61,62,0,61,2.20,15.20,3.61,4.75
2014-07-13 12:00:00,0,40720,61,1.24,0,0,0,0,26940,50000,7473,42409,61,61,0,61,0.20,3.95,1.10,1.00
2014-07-13 12:10:00,0,40848,58,1.15,0,0,0,0,24011,50000,9293,43762,51,61,5,61,0.10,2.90,0.77,1.08
2014-07-13 12:20:00,0,26143,61,8.36,0,0,0,0,17328,35921,5974,26760,61,62,0,61,0.45,30.95,9.64,3.82
2014-07-13 12:30:00,0,31021,61,2.24,0,0,0,0,17195,41432,7073,31832,61,61,0,61,0.35,9.60,2.81,1.02
2014-07-13 12:40:00,1,17203,62,10.79,0,2,1,0,13517,20302,2134,17096,61,62,0,62,5.25,17.50,4.02,9.73
2014-07-13 12:50:00,2,14943,62,9.43,0,2,1,2,10994,20865,2968,14962,61,62,0,62,0.70,20.95,7.56,10.60
2014-07-13 13:00:00,2,41070,57,0.32,0,2,1,2,27520,50000,6256,40147,51,61,5,61,0.10,0.65,0.17,0.28
2014-07-13 13:10:00,1,49519,47,0.03,0,2,1,0,45191,50000,1443,50000,0,61,16,51,0.00,0.10,0.03,0.00
2014-07-13 13:20:00,0,42238,49,1.35,0,2,1,0,17509,50000,11219,50000,0,61,24,61,0.00,3.50,1.44,0.75
2014-07-13 13:30:00,2,48866,55,0.39,0,2,1,2,40681,50000,2746,49955,51,61,5,51,0.05,1.90,0.54,0.15
2014-07-13 13:40:00,2,35125,61,0.76,0,2,1,2,26731,46453,5503,34796,61,61,0,61,0.30,1.90,0.50,0.55
2014-07-13 13:50:00,1,20237,61,1.66,0,2,1,2,13856,35115,7180,17076,61,61,0,61,0.75,2.60,0.58,1.82
2014-07-13 14:00:00,2,16933,61,2.01,0,2,1,2,13151,20714,2532,17200,61,61,0,61,0.80,3.75,0.97,1.90
2014-07-13 14:10:00,1,25696,53,0.65,0,2,1,1,14674,40617,9458,23805,51,61,4,51,0.15,2.25,0.60,0.45
2014-07-13 14:20:00,0,19968,60,12.54,0,0,0,0,7913,36252,9569,19682,51,62,3,62,1.05,33.20,10.13,10.38
2014-07-13 14:30:00,0,7285,62,34.46,0,0,0,0,5367,9136,1022,7466,62,63,0,62,15.40,58.35,12.25,31.90
2014-07-13 14:40:00,0,10819,62,18.98,0,0,0,0,9434,12747,856,10750,61,62,0,62,9.30,37.55,7.85,17.45
2014-07-13 14:50:00,0,15180,61,8.03,0,0,0,0,11770,23712,3655,13440,61,62,0,61,2.20,21.00,4.96,6.43
2014-07-13 15:00:00,0,23582,61,3.73,0,0,0,0,18070,31466,4535,22304,61,62,0,61,0.75,10.55,3.16,2.58
2014-07-13 15:10:00,0,24638,61,3.06,0,0,0,0,14251,43017,8942,21046,61,61,0,61,0.95,5.25,1.37,3.05
2014-07-13 15:20:00,0,16702,53,0.57,0,0,0,0,13490,20602,2306,15993,51,61,4,52,0.10,1.90,0.48,0.40
2014-07-13 15:30:00,0,27362,38,0.20,0,0,0,0,22909,34155,3830,26500,0,61,25,51,0.00,0.65,0.25,0.08
2014-07-13 15:40:00,0,27484,51,0.18,0,0,0,0,20800,33104,3817,27302,51,51,0,51,0.10,0.30,0.06,0.17
2014-07-13 15:50:00,0,22060,51,0.41,0,0,0,0,15790,26006,2956,22500,51,52,0,51,0.10,1.30,0.42,0.23
2014-07-13 16:00:00,0,9235,57,5.13,0,0,0,0,5293,15097,3193,8443,52,62,5,56,1.05,12.55,3.52,4.25
2014-07-13 16:10:00,0,6277,62,18.23,0,0,0,0,2868,9998,2479,5884,61,62,0,62,2.10,39.45,13.82,18.47
2014-07-13 16:20:00,0,7220,56,1.72,0,0,0,0,6447,7911,474,7295,52,61,4,52,0.35,2.70,0.75,1.80
2014-07-13 16:30:00,0,6261,52,1.53,0,0,0,0,3833,8528,1303,6412,52,52,0,52,0.55,3.90,1.01,1.23
2014-07-13 16:40:00,0,3832,51,0.60,0,0,0,0,3194,4386,369,3780,51,52,0,51,0.35,0.85,0.15,0.62
2014-07-13 16:50:00,0,2924,52,1.16,0,0,0,0,2502,3368,244,2926,52,52,0,52,0.70,1.45,0.23,1.15
2014-07-13 17:00:00,0,3382,41,0.50,0,0,0,0,1883,5337,1006,3272,10,61,21,51,0.00,2.85,0.82,0.25
2014-07-13 17:10:00,0,3032,52,1.71,0,0,0,0,2337,3434,361,3136,52,52,0,52,1.00,3.20,0.78,1.30
2014-07-13 17:20:00,0,3870,52,0.67,0,0,0,0,2804,6251,981,3578,51,52,0,52,0.00,1.50,0.51,0.70
2014-07-13 17:30:00,0,7370,10,0.00,0,0,0,0,6294,8542,717,7218,10,10,0,10,0.00,0.00,0.00,0.00
2014-07-13 17:40:00,0,8776,10,0.00,0,0,0,0,6253,14319,2535,7366,10,10,0,10,0.00,0.00,0.00,0.00
2014-07-13 17:50:00,0,24997,6,0.00,0,0,0,0,12622,36471,7698,25518,0,10,5,10,0.00,0.00,0.00,0.00
2014-07-13 18:00:00,0,32545,0,0.00,0,0,0,0,22827,44244,6281,33468,0,0,0,0,0.00,0.00,0.00,0.00
2014-07-13 18:10:00,0,47029,0,0.00,0,0,0,0,41054,50000,2769,47627,0,0,0,0,0.00,0.00,0.00,0.00
2014-07-13 18:20:00,0,46389,0,0.00,0,0,0,0,24639,50000,7443,49494,0,0,0,0,0.00,0.00,0.00,0.00
2014-07-13 18:30:00,0,5111,62,19.75,0,0,0,0,3746,9627,1642,4716,61,62,0,62,2.15,37.15,11.83,18.85
2014-07-13 18:40:00,0,9848,56,1.07,0,0,0,0,6894,13433,1871,9294,52,61,4,52,0.30,2.75,0.78,0.78
2014-07-13 18:50:00,0,28994,46,0.28,0,0,0,0,13430,50000,14106,25679,0,52,16,52,0.00,0.75,0.25,0.25
2014-07-13 19:00:00,0,50000,0,0.00,0,0,0,0,50000,50000,0,50000,0,0,0,0,0.00,0.00,0.00,0.00
2014-07-13 19:10:00,0,49543,0,0.00,0,0,0,0,45427,50000,1372,50000,0,0,0,0,0.00,0.00,0.00,0.00
2014-07-13 19:20:00,0,49965,0,0.00,0,0,0,0,49646,50000,106,50000,0,0,0,0,0.00,0.00,0.00,0.00
2014-07-13 19:30:00,0,49891,0,0.00,0,0,0,0,48907,50000,328,50000,0,0,0,0,0.00,0.00,0.00,0.00
2014-07-13 19:40:00,0,49885,0,0.00,0,0,0,0,48846,50000,346,50000,0,0,0,0,0.00,0.00,0.00,0.00
2014-07-13 19:50:00,0,50000,0,0.00,0,0,0,0,50000,50000,0,50000,0,0,0,0,0.00,0.00,0.00,0.00
2014-07-13 20:00:00,0,49658,0,0.00,0,0,0,0,46630,50000,1009,50000,0,0,0,0,0.00,0.00,0.00,0.00
2014-07-13 20:10:00,0,50000,0,0.00,0,0,0,0,50000,50000,0,50000,0,0,0,0,0.00,0.00,0.00,0.00
2014-07-13 20:20:00,0,49459,0,0.00,0,0,0,0,45623,50000,1315,50000,0,0,0,0,0.00,0.00,0.00,0.00
2014-07-13 20:30:00,0,50000,0,0.00,0,0,0,0,50000,50000,0,50000,0,0,0,0,0.00,0.00,0.00,0.00
2014-07-13 20:40:00,0,48982,0,0.00,0,0,0,0,46554,50000,1421,50000,0,0,0,0,0.00,0.00,0.00,0.00
2014-07-13 20:50:00,0,49794,0,0.00,0,0,0,0,48260,50000,520,50000,0,0,0,0,0.00,0.00,0.00,0.00
2014-07-13 21:00:00,0,50000,0,0.00,0,0,0,0,50000,50000,0,50000,0,0,0,0,0.00,0.00,0.00,0.00
2014-07-13 21:10:00,0,48262,0,0.00,0,0,0,0,43776,50000,2335,49393,0,0,0,0,0.00,0.00,0.00,0.00
2014-07-13 21:20:00,0,47880,0,0.00,0,0,0,0,42511,50000,2774,48987,0,0,0,0,0.00,0.00,0.00,0.00
2014-07-13 21:30:00,0,44808,0,0.00,0,0,0,0,37236,49996,4377,45300,0,0,0,0,0.00,0.00,0.00,0.00
2014-07-13 21:40:00,0,39522,0,0.00,0,0,0,0,33916,45911,3730,40108,0,0,0,0,0.00,0.00,0.00,0.00
2014-07-13 21:50:00,0,47885,0,0.00,0,0,0,0,37287,50000,3734,49397,0,0,0,0,0.00,0.00,0.00,0.00
2014-07-13 22:00:00,0,43022,0,0.00,0,0,0,0,27552,50000,8793,49294,0,0,0,0,0.00,0.00,0.00,0.00
2014-07-13 22:10:00,0,33340,0,0.00,0,0,0,0,9681,50000,16163,41854,0,0,0,0,0.00,0.00,0.00,0.00
2014-07-13 22:20:00,0,11572,38,2.16,0,0,0,0,6986,17400,3679,10887,0,61,25,52,0.00,7.35,2.27,1.48
2014-07-13 22:30:00,0,44706,5,0.38,0,0,0,0,17745,50000,10009,50000,0,52,16,0,0.00,3.75,1.12,0.00
2014-07-13 22:40:00,0,48689,0,0.00,0,0,0,0,43868,50000,2091,49627,0,0,0,0,0.00,0.00,0.00,0.00
2014-07-13 22:50:00,0,50000,0,0.00,0,0,0,0,50000,50000,0,50000,0,0,0,0,0.00,0.00,0.00,0.00
2014-07-13 23:00:00,0,49945,0,0.00,0,0,0,0,49450,50000,165,50000,0,0,0,0,0.00,0.00,0.00,0.00
2014-07-13 23:10:00,0,50000,0,0.00,0,0,0,0,50000,50000,0,50000,0,0,0,0,0.00,0.00,0.00,0.00
2014-07-13 23:20:00,0,48642,0,0.00,0,0,0,0,42159,50000,2547,50000,0,0,0,0,0.00,0.00,0.00,0.00
2014-07-13 23:30:00,0,50000,0,0.00,0,0,0,0,50000,50000,0,50000,0,0,0,0,0.00,0.00,0.00,0.00
2014-07-13 23:40:00,0,50000,0,0.00,0,0,0,0,50000,50000,0,50000,0,0,0,0,0.00,0.00,0.00,0.00
2014-07-13 23:50:00,0,50000,0,0.00,0,0,0,0,50000,50000,0,50000,0,0,0,0,0.00,0.00,0.00,0.00
